GW5397 Weather Reports


time (UTC)temp
F
wind
direction
speed
knots
gust
knots
rain 1hr
in
rain 24hr
in
rain mn
in
humidity
%
barometer
mb
20260505153331 39 17 0.0 0.9 0.00 0.01 0.01 93 1016.7
20260505152828 39 17 0.0 0.0 0.00 0.01 0.01 93 1016.3
20260505152325 39 17 0.0 0.0 0.00 0.01 0.01 93 1016.4
20260505151825 39 17 0.0 0.9 0.00 0.01 0.01 92 1016.5
20260505151322 39 17 0.0 0.0 0.00 0.01 0.01 92 1016.8
20260505150819 40 17 0.0 0.0 0.00 0.01 0.01 92 1016.5
20260505150317 40 17 0.0 0.0 0.00 0.01 0.01 90 1016.4
20260505140246 41 17 0.0 0.0 0.00 0.01 0.01 86 1016.3
20260505130210 41 17 0.0 0.0 0.00 0.01 0.01 85 1015.9
20260505124700 42 17 0.0 0.0 0.00 0.01 0.01 84 1015.6
20260505124156 42 17 0.0 0.0 0.00 0.01 0.01 84 1015.3
20260505123653 42 17 0.0 0.0 0.00 0.01 0.01 84 1015.3
20260505123150 42 17 0.0 0.0 0.00 0.01 0.01 83 1015.6
20260505122646 42 17 0.0 0.0 0.00 0.01 0.01 82 1015.4
20260505122143 42 17 0.0 0.0 0.00 0.01 0.01 82 1015.3
20260505121640 42 17 0.0 0.0 0.00 0.01 0.01 82 1015.2
20260505121137 42 17 0.0 0.0 0.00 0.01 0.01 82 1014.8
20260505120633 43 17 0.0 0.0 0.00 0.01 0.01 80 1014.8
20260505120129 43 17 0.0 0.0 0.00 0.01 0.01 80 1014.7
20260505115623 43 17 0.0 0.0 0.00 0.01 0.01 79 1014.4
20260505115121 43 17 0.0 0.0 0.00 0.01 0.01 81 1014.6
20260505114618 44 17 0.0 0.0 0.00 0.01 0.01 79 1014.5
20260505114114 44 17 0.0 0.0 0.00 0.01 0.01 79 1014.2
20260505113611 44 17 0.0 0.0 0.00 0.01 0.01 78 1014.5
20260505113108 44 17 0.0 0.0 0.00 0.01 0.01 78 1014.5
20260505112604 44 17 0.0 0.0 0.00 0.01 0.01 77 1014.2
20260505112103 44 17 0.0 0.0 0.00 0.01 0.01 77 1014.0
20260505111601 44 17 0.0 0.0 0.00 0.01 0.01 79 1014.0
20260505111057 45 17 0.0 0.0 0.00 0.01 0.01 79 1014.1
20260505110554 45 17 0.0 0.0 0.00 0.01 0.01 81 1014.2
20260505102027 44 17 0.0 0.0 0.00 0.01 0.01 84 1014.4
20260505101525 44 17 0.0 0.0 0.00 0.01 0.01 85 1014.2
20260505101021 44 17 0.0 0.0 0.00 0.01 0.01 87 1014.5
20260505100518 44 17 0.0 0.0 0.00 0.01 0.01 87 1014.2
20260505100015 44 17 0.0 0.0 0.00 0.01 0.01 89 1014.4
20260505095511 44 17 0.0 0.0 0.00 0.01 0.01 90 1014.5
20260505095008 44 17 0.0 0.0 0.00 0.01 0.01 89 1014.1
20260505094504 44 17 0.0 0.0 0.00 0.01 0.01 89 1014.5
20260505094000 44 17 0.0 0.0 0.00 0.01 0.01 89 1014.6
20260505093457 44 17 0.0 0.0 0.00 0.01 0.01 88 1014.2
20260505092954 44 17 0.0 0.0 0.00 0.01 0.01 88 1014.1
20260505092452 45 17 0.0 0.0 0.00 0.01 0.01 88 1014.5
20260505091949 45 17 0.0 0.0 0.00 0.01 0.01 88 1014.1
20260505091447 45 17 0.0 0.0 0.00 0.01 0.01 87 1014.6
20260505090945 45 17 0.0 0.0 0.00 0.01 0.01 86 1014.5
20260505090443 45 17 0.0 0.0 0.00 0.01 0.01 86 1014.5
20260505085940 45 17 0.0 0.0 0.00 0.01 0.01 87 1014.5
20260505085438 46 17 0.0 0.0 0.00 0.01 0.01 87 1014.5
20260505084936 46 17 0.0 0.0 0.00 0.01 0.01 88 1014.6
20260505084434 46 17 0.0 0.0 0.00 0.01 0.01 86 1014.6
20260505083931 46 17 0.0 0.0 0.00 0.01 0.01 85 1014.8
20260505083428 46 17 0.0 0.0 0.00 0.01 0.01 85 1015.0
20260505082924 46 17 0.0 0.0 0.00 0.01 0.01 85 1015.0
20260505082420 46 17 0.0 0.0 0.00 0.01 0.01 86 1015.2
20260505081918 46 17 0.0 0.0 0.00 0.01 0.01 86 1014.8
20260505081415 46 17 0.0 0.0 0.00 0.01 0.01 86 1015.1
20260505080911 46 17 0.0 0.0 0.00 0.01 0.01 86 1015.0
20260505080407 46 17 0.0 0.0 0.00 0.01 0.01 86 1015.0
20260505075902 46 17 0.0 0.0 0.00 0.01 0.01 86 1015.1
20260505075359 46 17 0.0 0.0 0.00 0.01 0.01 86 1015.1
20260505074857 45 17 0.0 0.0 0.00 0.01 0.01 89 1015.0
20260505074354 45 17 0.0 0.0 0.00 0.01 0.01 92 1015.2
20260505073851 45 17 0.0 0.0 0.00 0.01 0.01 93 1015.3
20260505073349 45 17 0.0 0.0 0.00 0.01 0.01 92 1015.1
20260505072846 45 17 0.0 0.0 0.00 0.01 0.01 91 1015.2
20260505072342 45 17 0.0 0.0 0.00 0.01 0.01 91 1015.6
20260505071838 44 17 0.0 0.0 0.00 0.01 0.01 93 1015.2
20260505071334 45 17 0.0 0.0 0.00 0.01 0.01 93 1015.3
20260505070833 44 17 0.0 0.0 0.00 0.01 0.01 93 1015.2
20260505070329 45 17 0.0 0.0 0.00 0.01 0.01 93 1015.2
20260505065824 45 17 0.0 0.0 0.00 0.01 0.01 94 1015.2
20260505065321 45 17 0.0 0.0 0.00 0.01 0.01 95 1015.2
20260505064818 45 17 0.0 0.0 0.00 0.01 0.01 95 1015.0
20260505064315 45 17 0.0 0.0 0.00 0.01 0.01 95 1015.0
20260505063814 45 17 0.0 0.0 0.00 0.01 0.01 94 1015.1
20260505063309 45 17 0.0 0.0 0.00 0.01 0.01 94 1015.1
20260505062806 45 17 0.0 0.0 0.00 0.01 0.01 93 1015.6
20260505062304 45 17 0.0 0.0 0.00 0.01 0.01 93 1015.3
20260505061800 45 17 0.0 0.0 0.00 0.01 0.01 93 1015.1
20260505061258 45 17 0.0 0.0 0.05 0.01 0.01 93 1015.3
20260505060755 46 17 0.0 0.0 0.05 0.01 0.01 90 1015.6
20260505060252 46 17 0.0 0.0 0.00 0.00 0.00 89 1015.6
20260505055747 47 17 0.0 0.0 0.07 0.03 0.03 84 1015.3
20260505055244 47 17 0.0 0.0 0.07 0.03 0.03 81 1015.7
20260505054741 48 17 0.0 0.0 0.00 0.02 0.02 77 1015.7
20260505054239 48 17 0.0 0.0 0.00 0.02 0.02 75 1015.8
20260505053737 48 17 0.0 0.0 0.00 0.02 0.02 74 1015.6
20260505053233 48 17 0.0 0.0 0.00 0.02 0.02 73 1015.6
20260505052731 48 17 0.0 0.0 0.00 0.02 0.02 73 1015.6
20260505052227 48 17 0.0 0.0 0.00 0.02 0.02 73 1015.2
20260505051725 48 17 0.0 0.0 0.00 0.02 0.02 74 1015.7
20260505051223 48 17 0.0 0.0 0.00 0.02 0.02 75 1015.2
20260505050720 48 17 0.0 0.0 0.00 0.02 0.02 76 1015.3
20260505050218 48 17 0.0 0.0 0.00 0.02 0.02 76 1015.2
20260505041648 47 17 0.0 0.0 0.00 0.02 0.02 76 1015.0
20260505041146 47 17 0.0 0.0 0.00 0.02 0.02 76 1014.6
20260505040643 47 17 0.0 0.0 0.00 0.02 0.02 76 1014.6
20260505040140 47 17 0.0 0.0 0.00 0.02 0.02 75 1014.8
20260505035636 48 17 0.0 0.0 0.00 0.02 0.02 75 1014.7
20260505035132 48 17 0.0 0.0 0.00 0.02 0.02 75 1014.7
20260505034629 48 17 0.0 0.0 0.00 0.02 0.02 75 1015.0
20260505034126 48 17 0.0 0.0 0.00 0.02 0.02 74 1014.8
20260505033622 48 17 0.0 0.0 0.00 0.02 0.02 73 1014.6
20260505033121 48 17 0.0 0.0 0.00 0.02 0.02 73 1014.7
20260505032619 49 17 0.0 0.0 0.00 0.02 0.02 73 1014.4
20260505032114 49 17 0.0 0.0 0.00 0.02 0.02 68 1014.2
20260505031612 49 17 0.0 0.0 0.00 0.02 0.02 71 1014.2
20260505031108 49 17 0.0 0.0 0.00 0.02 0.02 69 1014.1
20260505030605 48 17 0.0 0.0 0.00 0.02 0.02 71 1014.1
20260505030101 48 17 0.0 0.0 0.00 0.02 0.02 76 1014.0
20260505025557 49 17 0.0 0.0 0.00 0.02 0.02 73 1014.0
20260505025056 48 17 0.0 0.0 0.00 0.02 0.02 72 1013.9
20260505024553 49 17 0.0 0.0 0.00 0.02 0.02 74 1013.9
20260505024050 49 17 0.0 0.0 0.00 0.02 0.02 72 1014.1
20260505023547 49 17 0.0 0.0 0.00 0.02 0.02 72 1014.2
20260505023045 50 17 0.0 0.0 0.00 0.02 0.02 70 1014.5
20260505022542 50 17 0.0 0.0 0.00 0.02 0.02 67 1014.4
20260505022039 50 17 0.0 0.0 0.00 0.02 0.02 69 1014.2
20260505021536 51 17 0.0 0.0 0.00 0.02 0.02 67 1014.2
20260505021032 50 17 0.0 0.9 0.00 0.02 0.02 67 1014.0
20260505020532 50 17 0.0 0.0 0.00 0.02 0.02 69 1014.4
20260505020030 50 17 0.0 0.0 0.00 0.02 0.02 68 1014.1
20260505015527 50 17 0.0 0.0 0.00 0.02 0.02 68 1014.2
20260505015023 50 17 0.0 0.0 0.00 0.02 0.02 70 1014.2
20260505014520 50 17 0.0 0.0 0.00 0.02 0.02 71 1013.8
20260505014017 50 17 0.0 0.0 0.00 0.02 0.02 72 1013.6
20260505013515 48 17 0.0 0.9 0.00 0.02 0.02 74 1013.6
20260505013012 48 17 0.0 0.9 0.00 0.02 0.02 80 1013.5
20260505012510 48 17 0.0 0.0 0.00 0.02 0.02 79 1013.6
20260505012006 48 17 0.0 0.0 0.05 0.02 0.02 81 1013.8
20260505011502 48 17 0.0 0.9 0.07 0.01 0.01 79 1014.0
20260505010959 49 17 0.0 0.9 0.07 0.01 0.01 75 1013.8
20260505010455 51 17 0.0 0.9 0.00 0.00 0.00 70 1013.6
20260505005951 54 17 0.9 2.6 0.00 0.00 0.00 61 1013.1
20260505005448 55 17 0.0 0.0 0.00 0.00 0.00 53 1012.9
20260505004946 56 17 0.0 0.0 0.00 0.00 0.00 55 1012.9
20260505004442 57 17 0.0 0.9 0.00 0.00 0.00 50 1012.8
20260505003939 58 17 0.9 2.6 0.00 0.00 0.00 47 1012.1
20260505003436 59 17 0.0 0.0 0.00 0.00 0.00 45 1011.9
20260505002932 61 17 0.0 0.0 0.00 0.00 0.00 40 1012.1
20260505002429 61 17 0.0 0.0 0.00 0.00 0.00 36 1011.7
20260505001927 61 17 0.0 0.0 0.00 0.00 0.00 37 1011.7
20260505001425 61 17 0.0 0.0 0.00 0.00 0.00 36 1011.9
20260505000922 62 17 0.0 0.0 0.00 0.00 0.00 36 1011.6
20260505000420 62 17 0.9 2.6 0.00 0.00 0.00 35 1011.8
20260504235916 62 17 0.0 0.0 0.00 0.00 0.00 35 1011.6
20260504235413 63 17 0.0 0.0 0.00 0.00 0.00 35 1011.7
20260504234909 63 17 0.0 0.0 0.00 0.00 0.00 35 1011.3
20260504234407 63 17 0.9 1.7 0.00 0.00 0.00 34 1011.1
20260504233903 63 17 0.0 0.0 0.00 0.00 0.00 34 1011.2
20260504233359 63 17 0.0 0.0 0.00 0.00 0.00 34 1011.0
20260504232856 63 17 0.9 1.7 0.00 0.00 0.00 38 1011.1
20260504232353 63 18 0.0 0.0 0.00 0.00 0.00 37 1011.1
20260504231850 63 18 0.0 0.0 0.00 0.00 0.00 38 1011.1
20260504231346 64 18 0.0 0.0 0.00 0.00 0.00 33 1010.7
20260504230842 64 18 0.0 0.9 0.00 0.00 0.00 38 1010.8
20260504230340 63 18 0.0 0.0 0.00 0.00 0.00 37 1010.6
20260504225839 62 18 0.0 0.0 0.00 0.00 0.00 37 1011.0
20260504225335 62 17 0.0 0.0 0.00 0.00 0.00 37 1011.0
20260504224833 62 17 0.0 0.0 0.00 0.00 0.00 38 1011.0
20260504224329 62 17 0.0 0.0 0.00 0.00 0.00 38 1010.8
20260504223826 61 17 0.0 0.0 0.00 0.00 0.00 37 1011.1
20260504223321 61 17 0.0 0.0 0.00 0.00 0.00 39 1011.2
20260504222818 61 17 0.0 0.0 0.00 0.00 0.00 40 1011.8
20260504222315 60 17 0.0 0.0 0.00 0.00 0.00 45 1011.4
20260504221814 60 17 0.0 0.0 0.00 0.00 0.00 45 1011.4
20260504221310 60 17 0.0 0.0 0.00 0.00 0.00 45 1011.3
20260504220807 61 17 0.0 1.7 0.00 0.00 0.00 48 1011.7
20260504220303 62 17 0.0 0.0 0.00 0.00 0.00 40 1011.6
20260504215801 62 17 0.0 0.0 0.00 0.00 0.00 38 1011.8
20260504215257 62 17 0.0 0.9 0.00 0.00 0.00 37 1011.3
20260504214753 62 17 0.0 0.9 0.00 0.00 0.00 37 1011.4
20260504214250 62 17 2.6 8.7 0.00 0.00 0.00 38 1011.7
20260504213747 63 17 0.0 0.9 0.00 0.00 0.00 37 1011.4
20260504213243 65 17 0.0 0.9 0.00 0.00 0.00 31 1011.1
20260504212740 66 17 0.9 2.6 0.00 0.00 0.00 27 1011.0
20260504212236 67 18 0.9 2.6 0.00 0.00 0.00 27 1010.7
20260504211734 69 18 0.0 0.0 0.00 0.00 0.00 25 1010.6
20260504211230 70 18 0.0 0.0 0.00 0.00 0.00 24 1010.5
20260504210728 69 18 0.0 0.0 0.00 0.00 0.00 24 1010.6
20260504210225 70 18 0.0 0.0 0.00 0.00 0.00 23 1010.4
20260504205722 70 18 0.0 0.0 0.00 0.00 0.00 23 1010.5
20260504205220 71 18 0.0 0.0 0.00 0.00 0.00 24 1010.4
20260504204717 71 18 0.0 0.0 0.00 0.00 0.00 22 1010.6
20260504204216 71 19 0.0 0.0 0.00 0.00 0.00 23 1010.6
20260504203715 70 19 0.0 0.0 0.00 0.00 0.00 23 1010.8
20260504203212 71 19 0.0 0.0 0.00 0.00 0.00 23 1010.7
20260504202711 71 18 0.0 0.0 0.00 0.00 0.00 23 1011.3
20260504202209 71 18 0.0 0.0 0.00 0.00 0.00 24 1011.1
20260504201706 69 18 1.7 4.3 0.00 0.00 0.00 24 1011.3
20260504201203 71 19 1.7 4.3 0.00 0.00 0.00 23 1011.2
20260504200701 71 19 0.0 0.0 0.00 0.00 0.00 21 1011.2
20260504200157 71 18 0.0 0.0 0.00 0.00 0.00 22 1011.2
20260504195654 70 18 0.0 0.9 0.00 0.00 0.00 22 1011.2
20260504195149 71 18 0.9 1.7 0.00 0.00 0.00 23 1011.1
20260504194646 69 18 0.0 0.9 0.00 0.00 0.00 26 1011.3
20260504194142 70 18 0.9 1.7 0.00 0.00 0.00 24 1011.2
20260504193639 71 18 0.0 0.9 0.00 0.00 0.00 23 1011.1
20260504193137 69 18 0.0 0.0 0.00 0.00 0.00 22 1011.6
20260504192634 69 18 0.0 0.0 0.00 0.00 0.00 22 1011.6
20260504192132 70 18 0.0 0.0 0.00 0.00 0.00 22 1011.4
20260504191631 69 18 0.0 0.0 0.00 0.00 0.00 23 1011.2
20260504191127 69 18 0.0 0.0 0.00 0.00 0.00 22 1011.6
20260504190623 68 19 0.0 0.0 0.00 0.00 0.00 21 1011.7
20260504190120 68 18 0.9 1.7 0.00 0.00 0.00 21 1012.1
20260504185616 69 18 0.0 0.0 0.00 0.00 0.00 21 1011.9
20260504185113 69 18 2.6 2.6 0.00 0.00 0.00 20 1011.8
20260504184608 70 18 0.0 0.0 0.00 0.00 0.00 20 1012.1
20260504184103 70 18 0.0 0.0 0.00 0.00 0.00 20 1012.1
20260504183601 71 19 0.0 0.0 0.00 0.00 0.00 20 1012.1
20260504183059 70 18 0.0 0.0 0.00 0.00 0.00 20 1012.4
20260504182555 70 18 0.0 0.0 0.00 0.00 0.00 19 1012.4
20260504182053 70 19 0.0 0.0 0.00 0.00 0.00 19 1012.4
20260504181550 70 18 0.0 0.0 0.00 0.00 0.00 19 1012.8
20260504181048 68 18 0.9 0.9 0.00 0.00 0.00 21 1012.9
20260504180547 67 18 0.0 0.0 0.00 0.00 0.00 21 1012.9
20260504180046 67 17 0.0 0.0 0.00 0.00 0.00 21 1012.7
20260504175542 68 18 0.0 0.9 0.00 0.00 0.00 22 1012.9
20260504175039 70 18 0.0 0.0 0.00 0.00 0.00 21 1012.9
20260504174537 69 18 0.0 0.9 0.00 0.00 0.00 22 1013.0
20260504174033 70 18 0.0 0.0 0.00 0.00 0.00 22 1013.4
20260504173530 70 18 0.0 0.0 0.00 0.00 0.00 21 1013.1
20260504173028 69 18 0.0 0.0 0.00 0.00 0.00 23 1013.4
20260504172524 70 18 0.0 0.0 0.00 0.00 0.00 24 1013.1
20260504172021 68 18 0.0 0.0 0.00 0.00 0.00 25 1013.6
20260504171517 66 17 0.0 0.9 0.00 0.00 0.00 25 1013.4
20260504171014 67 18 0.9 0.9 0.00 0.00 0.00 26 1013.8
20260504170510 67 18 0.9 0.9 0.00 0.00 0.00 26 1013.6
20260504160430 67 17 0.0 0.0 0.00 0.00 0.00 23 1013.9